Tracking 18984 objects as of 24-Feb-2018
HD Live streaming from Space Station
objects crossing your sky now

SL-12 R/B(2)

Track SL-12 R/B(2) now!


NORAD ID: 25525
Int'l Code: 1998-065D
Perigee: 6,696.3 km
Apogee: 35,991.7 km
Inclination: 18.0 °
Period: 765.3 minutes
Semi major axis: 27714 km
RCS: 25.3943 m2 (large)
Launch date: November 4, 1998
Source: Commonwealth of Independent States (former USSR) (CIS)
Launch site: TYURATAM MISSILE AND SPACE COMPLEX (TTMTR)

Note: This is a ROCKET BODY
aabbcc
Your satellite tracking list
Your tracking list is empty




NASA's NSSDC Master Catalog

Two Line Element Set (TLE):
1 25525U 98065D   18054.42171718 -.00000034 +00000-0 +00000-0 0  9994
2 25525 017.9633 073.7009 5285110 354.0095 192.4575 01.88161645132676
Source of the keplerian elements: AFSPC